Home   Weather   Dallas   Past weeks

Flag for USA Past Weather in Dallas, Texas, USA — Yesterday and Last 2 Weeks

Now
77 °F

Partly sunny.


Feels Like: 78 °F
Forecast: 48 / 78 °F
Wind: 16 mph from Southeast

Location: Dallas Love Field

Current Time: Apr 24, 2017 at 4:32:11 pm

Latest Report: Apr 24, 2017 at 3:53 pm


Visibility: 10 mi

Pressure: 29.75 "Hg

Humidity: 33%

Dew Point: 46 °F

Location of DallasLocation

Past Weather in Dallas — Graph

°F

Dallas Temperature Yesterday

Maximum temperature yesterday: 74 °F (at 3:53 pm)
Minimum temperature yesterday: 49 °F (at 6:53 am)
Average temperature yesterday: 62 °F

High & Low Weather Summary for the Past Weeks

 TemperatureHumidityPressure
High85 °F (Apr 19, 5:53 pm)94% (Apr 11, 3:53 am)30.23 "Hg (Apr 11, 3:53 am)
Low49 °F (Apr 23, 6:53 am)26% (Apr 23, 5:53 pm)29.66 "Hg (Apr 21, 7:53 pm)
Average71 °F70%30.02 "Hg
* Reported Apr 9 2:53 pm — Apr 24 2:53 pm, Dallas, Weather by CustomWeather, © 2017

Note: Actual official high and low records may vary slightly from our data, if they occured in-between our weather recording intervals... More about our weather records

Advertising

Dallas Weather History for the Previous 24 Hours

Scroll right to see more
 ConditionsComfort  
Time TempWeatherWind HumidityBarometerVisibility
2:53 pm
Mon, Apr 24
77 °FPartly sunny.12 mph33%29.79 "Hg10 mi
1:53 pm76 °FPartly sunny.17 mph33%29.82 "Hg10 mi
12:53 pm74 °FPartly sunny.16 mph33%29.86 "Hg10 mi
11:53 am73 °FPartly sunny.9 mph33%29.90 "Hg10 mi
10:53 am71 °FScattered clouds.12 mph35%29.92 "Hg10 mi
9:53 am69 °FPassing clouds.10 mph42%29.93 "Hg10 mi
8:53 am64 °FPassing clouds.7 mph52%29.95 "Hg10 mi
7:53 am55 °FPassing clouds.3 mph69%29.95 "Hg10 mi
6:53 am54 °FPassing clouds.No wind72%29.95 "Hg10 mi
5:53 am53 °FClear.No wind77%29.94 "Hg10 mi
4:53 am57 °FPassing clouds.No wind62%29.94 "Hg10 mi
3:53 am54 °FClear.No wind72%29.94 "Hg10 mi
2:53 am55 °FClear.No wind72%29.94 "Hg10 mi
1:53 am56 °FClear.No wind70%29.96 "Hg10 mi
12:53 am54 °FClear.No wind74%29.97 "Hg10 mi
11:53 pm
Sun, Apr 23
57 °FPassing clouds.No wind64%29.98 "Hg10 mi
10:53 pm60 °FClear.6 mph56%30.00 "Hg10 mi
9:53 pm61 °FClear.3 mph52%30.00 "Hg10 mi
8:53 pm66 °FPassing clouds.5 mph39%29.99 "Hg10 mi
7:53 pm71 °FPassing clouds.8 mph30%29.99 "Hg10 mi
6:53 pm73 °FPassing clouds.10 mph28%29.99 "Hg10 mi
5:53 pm74 °FPassing clouds.12 mph26%30.00 "Hg10 mi
4:53 pm74 °FPassing clouds.13 mph28%30.02 "Hg10 mi
Weather by CustomWeather, © 2017

See weather overviewHow to use our weather pages